Weather History for Sheldon, IA

Change the Weather History Date:

Thursday, May 17, 2012

  Actual Average Record
Temperature  
Mean Temperature 75 °F -  
Max Temperature 91 °F 73 °F 92 °F (1987)
Min Temperature 59 °F 48 °F 30 °F (1968)
Cooling Degree Days 10    
Growing Degree Days 25 (Base 50)    
Moisture  
Dew Point 43 °F    
Average Humidity 34    
Maximum Humidity 52    
Minimum Humidity 18    
Precipitation  
Precipitation 0.00 in - - ()
Sea Level Pressure  
Sea Level Pressure 29.84 in    
Wind  
Wind Speed 20 mph (South)    
Max Wind Speed 31 mph    
Max Gust Speed 40 mph    
Visibility 10 miles    
Events      
Averages and records for this station are not official NWS values.
T = Trace of Precipitation, MM = Missing Value Source: NWS Daily Summary

Daily Weather History Graph

Daily Weather History Graph

Search for Another Location

Airport:

Trip Planner

Search our weather history database for the weather conditions in past years. The results will help you decide how hot, cold, wet, or windy it might be!

Date:

Astronomy

May. 17, 2012 Rise Set
Actual Time 5:56 AM CDT 8:43 PM CDT
Civil Twilight 5:23 AM CDT 9:16 PM CDT
Nautical Twilight 4:42 AM CDT 9:58 PM CDT
Astronomical Twilight 3:54 AM CDT 10:46 PM CDT
Moon 4:00 AM CDT (5/17) 5:53 PM CDT (5/17)
Length of Visible Light 15h 52m
Length of Day
14h 46m
Waning Crescent, 9% of the Moon is Illuminated
May 17
Waning Crescent
May 20
New
May 28
First Quarter
Jun 4
Full
Jun 11
Last Quarter

Hourly Weather History & Observations

Time (CDT) Temp. Dew Point Humidity Pressure Visibility Wind Dir Wind Speed Gust Speed Precip Events Conditions
12:15 AM 60.8 °F 33.8 °F 36% 29.97 in 10.0 mi SSE 13.8 mph - N/A   Clear
12:35 AM 60.8 °F 33.8 °F 36% 29.96 in 10.0 mi SSE 16.1 mph - N/A   Clear
12:55 AM 60.8 °F 33.8 °F 36% 29.95 in 10.0 mi SSE 17.3 mph - N/A   Clear
1:15 AM 62.6 °F 33.8 °F 34% 29.94 in 10.0 mi SSE 18.4 mph - N/A   Clear
1:35 AM 60.8 °F 35.6 °F 39% 29.94 in 10.0 mi SSE 20.7 mph - N/A   Clear
1:55 AM 60.8 °F 35.6 °F 39% 29.93 in 10.0 mi South 17.3 mph - N/A   Clear
2:15 AM 62.6 °F 37.4 °F 39% 29.93 in 10.0 mi South 18.4 mph 25.3 mph N/A   Clear
2:35 AM 60.8 °F 37.4 °F 42% 29.92 in 10.0 mi South 20.7 mph 24.2 mph N/A   Clear
2:55 AM 60.8 °F 37.4 °F 42% 29.93 in 10.0 mi South 17.3 mph - N/A   Clear
3:15 AM 60.8 °F 37.4 °F 42% 29.93 in 10.0 mi South 17.3 mph 23.0 mph N/A   Clear
3:35 AM 60.8 °F 39.2 °F 45% 29.93 in 10.0 mi South 15.0 mph - N/A   Clear
3:55 AM 60.8 °F 39.2 °F 45% 29.92 in 10.0 mi South 15.0 mph - N/A   Clear
4:15 AM 60.8 °F 39.2 °F 45% 29.93 in 10.0 mi South 16.1 mph - N/A   Clear
4:35 AM 60.8 °F 39.2 °F 45% 29.92 in 10.0 mi SSE 15.0 mph 20.7 mph N/A   Clear
4:55 AM 60.8 °F 39.2 °F 45% 29.92 in 10.0 mi SSE 16.1 mph - N/A   Clear
5:15 AM 59.0 °F 39.2 °F 48% 29.93 in 10.0 mi South 12.7 mph 18.4 mph N/A   Clear
5:35 AM 60.8 °F 39.2 °F 45% 29.93 in 10.0 mi SSE 10.4 mph - N/A   Clear
5:55 AM 59.0 °F 39.2 °F 48% 29.92 in 10.0 mi SSE 12.7 mph - N/A   Clear
6:15 AM 59.0 °F 39.2 °F 48% 29.92 in 10.0 mi SSE 15.0 mph 19.6 mph N/A   Clear
6:35 AM 60.8 °F 41.0 °F 48% 29.91 in 10.0 mi SSE 18.4 mph - N/A   Clear
6:55 AM 60.8 °F 41.0 °F 48% 29.92 in 10.0 mi SSE 19.6 mph 24.2 mph N/A   Clear
7:15 AM 60.8 °F 42.8 °F 52% 29.91 in 10.0 mi SSE 19.6 mph 24.2 mph N/A   Clear
7:35 AM 60.8 °F 42.8 °F 52% 29.90 in 10.0 mi South 19.6 mph - N/A   Clear
7:55 AM 62.6 °F 42.8 °F 48% 29.89 in 10.0 mi South 19.6 mph 27.6 mph N/A   Clear
8:15 AM 66.2 °F 42.8 °F 43% 29.89 in 10.0 mi South 23.0 mph 31.1 mph N/A   Clear
8:35 AM 69.8 °F 42.8 °F 38% 29.87 in 10.0 mi South 28.8 mph 35.7 mph N/A   Clear
8:55 AM 69.8 °F 42.8 °F 38% 29.87 in 10.0 mi South 25.3 mph 34.5 mph N/A   Clear
9:15 AM 71.6 °F 42.8 °F 35% 29.87 in 10.0 mi South 27.6 mph 34.5 mph N/A   Clear
9:35 AM 73.4 °F 42.8 °F 33% 29.87 in 10.0 mi South 27.6 mph 36.8 mph N/A   Clear
9:55 AM 73.4 °F 42.8 °F 33% 29.86 in 10.0 mi South 29.9 mph 38.0 mph N/A   Clear
10:15 AM 75.2 °F 44.6 °F 34% 29.86 in 10.0 mi South 25.3 mph 34.5 mph N/A   Clear
10:35 AM 78.8 °F 44.6 °F 30% 29.86 in 10.0 mi South 26.5 mph 34.5 mph N/A   Clear
10:55 AM 80.6 °F 44.6 °F 28% 29.85 in 10.0 mi SSW 21.9 mph 27.6 mph N/A   Clear
11:15 AM 80.6 °F 44.6 °F 28% 29.84 in 10.0 mi SSW 26.5 mph 36.8 mph N/A   Clear
11:35 AM 80.6 °F 44.6 °F 28% 29.84 in 10.0 mi SSW 26.5 mph 33.4 mph N/A   Clear
11:55 AM 82.4 °F 44.6 °F 26% 29.84 in 10.0 mi SSW 26.5 mph 35.7 mph N/A   Clear
12:15 PM 84.2 °F 44.6 °F 25% 29.83 in 10.0 mi SSW 23.0 mph 31.1 mph N/A   Clear
12:35 PM 84.2 °F 44.6 °F 25% 29.83 in 10.0 mi SSW 25.3 mph 33.4 mph N/A   Clear
12:55 PM 84.2 °F 42.8 °F 23% 29.82 in 10.0 mi South 25.3 mph 33.4 mph N/A   Clear
1:15 PM 84.2 °F 42.8 °F 23% 29.81 in 10.0 mi South 27.6 mph 36.8 mph N/A   Clear
1:35 PM 84.2 °F 42.8 °F 23% 29.81 in 10.0 mi South 27.6 mph 35.7 mph N/A   Clear
1:55 PM 87.8 °F 42.8 °F 21% 29.80 in 10.0 mi SSW 27.6 mph 35.7 mph N/A   Clear
2:15 PM 89.6 °F 42.8 °F 20% 29.79 in 10.0 mi South 31.1 mph 40.3 mph N/A   Clear
2:35 PM 89.6 °F 42.8 °F 20% 29.78 in 10.0 mi SSW 27.6 mph 38.0 mph N/A   Clear
2:55 PM 89.6 °F 42.8 °F 20% 29.78 in 10.0 mi SSW 26.5 mph 39.1 mph N/A   Clear
3:15 PM 89.6 °F 42.8 °F 20% 29.77 in 10.0 mi SSW 29.9 mph 35.7 mph N/A   Clear
3:35 PM 91.4 °F 42.8 °F 18% 29.77 in 10.0 mi SSW 26.5 mph 38.0 mph N/A   Clear
3:55 PM 91.4 °F 42.8 °F 18% 29.77 in 10.0 mi SSW 27.6 mph 38.0 mph N/A   Clear
4:15 PM 89.6 °F 44.6 °F 21% 29.76 in 10.0 mi SSW 25.3 mph 34.5 mph N/A   Clear
4:35 PM 91.4 °F 42.8 °F 18% 29.76 in 10.0 mi SSW 23.0 mph 33.4 mph N/A   Clear
4:55 PM 89.6 °F 42.8 °F 20% 29.75 in 10.0 mi SSW 26.5 mph 35.7 mph N/A   Clear
5:15 PM 89.6 °F 42.8 °F 20% 29.75 in 10.0 mi SSW 27.6 mph 39.1 mph N/A   Clear
5:35 PM 89.6 °F 42.8 °F 20% 29.75 in 10.0 mi SSW 27.6 mph 39.1 mph N/A   Clear
5:55 PM 89.6 °F 44.6 °F 21% 29.75 in 10.0 mi SSW 23.0 mph 32.2 mph N/A   Clear
6:35 PM 87.8 °F 44.6 °F 22% 29.75 in 10.0 mi South 27.6 mph 32.2 mph N/A   Clear
6:55 PM 87.8 °F 44.6 °F 22% 29.74 in 10.0 mi South 26.5 mph 33.4 mph N/A   Clear
7:15 PM 87.8 °F 42.8 °F 21% 29.74 in 10.0 mi South 23.0 mph 33.4 mph N/A   Clear
7:35 PM 86.0 °F 42.8 °F 22% 29.74 in 10.0 mi South 19.6 mph 29.9 mph N/A   Clear
7:55 PM 84.2 °F 42.8 °F 23% 29.74 in 10.0 mi South 23.0 mph 29.9 mph N/A   Clear
8:15 PM 84.2 °F 44.6 °F 25% 29.74 in 10.0 mi South 24.2 mph 28.8 mph N/A   Clear
8:35 PM 82.4 °F 44.6 °F 26% 29.75 in 10.0 mi South 20.7 mph 25.3 mph N/A   Clear
8:55 PM 80.6 °F 44.6 °F 28% 29.75 in 10.0 mi South 23.0 mph 27.6 mph N/A   Clear
9:15 PM 78.8 °F 48.2 °F 34% 29.76 in 10.0 mi South 24.2 mph 29.9 mph N/A   Clear
9:35 PM 78.8 °F 50.0 °F 36% 29.76 in 10.0 mi South 23.0 mph 31.1 mph N/A   Clear
9:55 PM 75.2 °F 51.8 °F 44% 29.76 in 10.0 mi South 25.3 mph 33.4 mph N/A   Clear
10:15 PM 75.2 °F 51.8 °F 44% 29.77 in 10.0 mi South 23.0 mph 28.8 mph N/A   Clear
10:35 PM 73.4 °F 51.8 °F 47% 29.78 in 10.0 mi South 20.7 mph 32.2 mph N/A   Clear
10:55 PM 73.4 °F 51.8 °F 47% 29.78 in 10.0 mi South 23.0 mph 26.5 mph N/A   Clear
11:15 PM 71.6 °F 51.8 °F 50% 29.78 in 10.0 mi South 23.0 mph 28.8 mph N/A   Clear
11:35 PM 71.6 °F 51.8 °F 50% 29.78 in 10.0 mi South 20.7 mph 28.8 mph N/A   Clear
11:55 PM 71.6 °F 51.8 °F 50% 29.78 in 10.0 mi South 23.0 mph - N/A   Clear